Погода в Шерабаде

Узбекистан     37°40′30″N   67°00′59″E
темп.,
°C
ветер,
м/с
пор.,
м/с
влажн.,
%
обл.,
%
осадки,
мм/ч
давл.,
гПа
погр.,
м
3 марта, ср
ср323:00+12сз445598 0.0 1023106
02:00+13ссв335299 0.0 102251
05:00+11ссв116699 0.1 102283
08:00+11ссз236698 0.1 1022231
11:00+12юз135996 0.1 1022976
14:00+14ююв115065 0.0 10201299
17:00+15вюв224854 0.0 10191371
20:00+12всв345812 0.0 102066
4 марта, чт
чт423:00+11ссв45656 0.0 1019106
02:00+10с346421 0.0 101846
05:00+10с335850 0.0 101727
08:00+11ссв235255 0.0 101853
11:00+16всв563450 0.0 1018866
14:00+18в433439 0.0 10161427
17:00+18ю233321 0.0 10161376
20:00+15ююз454630 0.0 1020117
5 марта, пт
пт523:00+14юв025638 0.1 102338
02:00+11ссз116742 0.3 102522
05:00+11с576568 0.6 1026336
08:00+11с125960 0.0 1027120
11:00+13вюв225537 0.0 1026753
14:00+16всв55480 0.0 10221349
17:00+16всв77461 0.0 10181362
20:00+13св5115773 0.0 1017414
6 марта, сб
сб623:00+13с355580 0.0 1015164
02:00+13ссв3536100 0.0 101170
05:00+13св0135100 0.0 100824
08:00+13сз6739100 0.1 100795
11:00+17ссв2433100 0.1 1009168
14:00+15юз8941100 0.1 1010482
17:00+12юз6760100 0.9 1015958
20:00+10зюз336888 0.6 1019115
7 марта, вс
вс723:00+9ююз336290 0.6 1022195
02:00+7юз456697 0.0 1022226
05:00+7юз346597 0.0 1022197
08:00+6вюв1368100 0.1 1023339
11:00+7в226499 0.1 1023771
14:00+9всв445999 0.0 10201014
17:00+10св445396 0.1 10181132
20:00+9с35617 0.0 1018131